Regional Weather Roundup
Issued by NWS Green Bay, WI

Home | Current Version | Previous Version | Graphics & Text | Print | Product List | Glossary Off
Versions: 1 2 3 4 5 6 7 8 9 10 11 12 13 14 15 16 17 18 19 20 21 22 23 24 25 26 27 28 29 30 31 32 33 34 35 36 37 38 39 40 41 42 43 44 45 46 47 48 49 50

000
ASUS43 KGRB 271700
RWRGRB

NORTH-CENTRAL AND NORTHEAST WISCONSIN REGIONAL WEATHER ROUNDUP
NATIONAL WEATHER SERVICE GREEN BAY WI
1200 PM CDT WED MAY 27 2015

WIZ005-009-010>012-018-019-271800-
NORTH CENTRAL WISCONSIN

CITY           SKY/WX    TMP DP  RH WIND       PRES   REMARKS
IRONWOOD       MOSUNNY   72  57  60 W9        29.82S
MANITOWISH WTR NOT AVBL
ARBOR VITAE    NOT AVBL
EAGLE RIVER    NOT AVBL
LAND O LAKES   NOT AVBL
RHINELANDER    MOSUNNY   67  57  70 W18       29.91R
PHILLIPS       NOT AVBL
ANTIGO         NOT AVBL
TOMAHAWK       NOT AVBL
MERRILL        NOT AVBL
$$

WIZ013-073-271800-
NORTHEAST WISCONSIN

CITY           SKY/WX    TMP DP  RH WIND       PRES   REMARKS
IRON MOUNTAIN  CLOUDY    66  58  75 W9        29.83R
MARINETTE      CLOUDY    63  55  77 SW5       29.88S
$$

WIZ017-030-035>037-045-271800-
CENTRAL WISCONSIN

CITY           SKY/WX    TMP DP  RH WIND       PRES   REMARKS
MEDFORD        NOT AVBL
WAUSAU         CLOUDY    61  58  90 SW7       29.94R
MOSINEE        PTSUNNY   61  61 100 CALM        N/A
MARSHFIELD     MOSUNNY   68  58  70 SW13      29.96R
WISC RAPIDS    PTSUNNY   66  57  72 W7        29.97R
STEVENS POINT  NOT AVBL
WAUPACA        NOT AVBL
SHAWANO        NOT AVBL
CLINTONVILLE   NOT AVBL
$$

WIZ038-039-048-051-271800-
FOX VALLEY

CITY           SKY/WX    TMP DP  RH WIND       PRES   REMARKS
NWS GREEN BAY  LGT RAIN  63  58  83 W12       29.93R
APPLETON       DRIZZLE   63  59  88 W9        29.95R
OSHKOSH        CLOUDY    63  56  78 W8        29.96R
FOND DU LAC    CLOUDY    62  53  72 N13G23    29.98R
$$

WIZ022-050-052-271800-
EAST CENTRAL WISCONSIN

CITY           SKY/WX    TMP DP  RH WIND       PRES   REMARKS
STURGEON BAY   CLOUDY    59  55  88 W10       29.92S
MANITOWOC      LGT RAIN  61  59  94 W12       29.93R
SHEBOYGAN      CLOUDY    62  56  80 NW13      29.94R
$$

LMZ563-521-522-541>543-271800-
LAKESHORE

STATION/POSITION TIME  TEMP    WIND        PRES    VSBY  WAVE
                       AIR SEA DIR/SP/G                  HT/PER
                 (UTC) (F)     (DEG/KT/KT) (MB)    (MI)  (FT/S)
SHEBOYGAN LKSHOR 1600   64     270/ 12/ 15 1012.8R
KEWAUNEE LKSHORE 1600   60     290/  7/ 13 1011.6R
ALGOMA MARINA    1638          320/  9/ 13   N/A
NORTHPORT PIER   1600   57     260/  5/ 12 1010.8R
N MID LAKE BUOY  1550   44 37  220/ 10/ 10 1010.3R         3/ 6
SISTER BAY LKSHO 1633   58     250/ 10/ 10   N/A
CHAMBERS ISLAND  1600   58     220/  5/  9 1011.5R
MENOMINEE LKSHOR 1600   60     250/  8/  9 1012.4R
$$



USA.gov is the U.S. government's official web portal to all federal, state and local government web resources and services.